Notices

What's New in latest Release from April 7th, 2021:

- Updated Glossary, including Speed of Maximum Gust, and Total Hourly Precipitation

- Updated national and regional climate services offices contacts and prices information

- Addition of station inventory lists for 1981-2010, 1971-2000, and 1961-1990 Normals.

If you haven't already, please take our survey and provide feedback about our website: https://eccc.sondage-survey.ca/f/LanguageSelection.aspx?s=442ca660-fcf1-47c0-95a9-59707d6fd709

Hourly Data Report for November 18, 2019

QUALICUM BEACH AIRPORT
BRITISH COLUMBIA
Current Station Operator: ECCC - MSC

49°20'14.000" N
124°23'38.000" W
58.20 m
1026562
71766
VOQ

Download Data

Hourly Data (November 2019)
Hourly Data Report for November 18, 2019
TIME
LST
Temp Definition
°C
Dew Point Definition
°C
Rel Hum Definition
%
Precip. Amount Definition
mm

Wind Dir Definition
10's deg

Wind Spd Definition
km/h
Visibility Definition
km
Stn Press Definition
kPa
Hmdx Definition


Wind Chill Definition


Weather Definition


00:00 8.5 8.0 97 LegendMM 26 3   101.48     LegendNANA
01:00 8.1 7.6 97 LegendMM 20 2   101.42     LegendNANA
02:00 7.7 7.3 98 LegendMM 0 1   101.37     LegendNANA
03:00 7.9 7.6 98 LegendMM 24 2   101.29     LegendNANA
04:00 7.9 7.5 98 LegendMM 30 3   101.19     LegendNANA
05:00 8.4 8.1 98 LegendMM 27 4   101.16     LegendNANA
06:00 8.0 7.7 98 LegendMM 15 3   101.08     LegendNANA
07:00 8.4 8.1 98 LegendMM 3 2   100.99     LegendNANA
08:00 8.6 8.3 98 LegendMM 13 2   100.86     LegendNANA
09:00 8.8 8.5 98 LegendMM 12 4   100.81     LegendNANA
10:00 9.3 9.0 98 LegendMM 11 7   100.72     LegendNANA
11:00 9.1 8.8 98 LegendMM 10 10   100.61     LegendNANA
12:00 9.3 9.0 98 LegendMM 12 7   100.41     LegendNANA
13:00 9.9 9.5 97 LegendMM 9 3   100.29     LegendNANA
14:00 9.6 8.7 94 LegendMM 10 12   100.18     LegendNANA
15:00 9.5 8.5 93 LegendMM 10 11   100.08     LegendNANA
16:00 9.3 8.2 93 LegendMM 9 8   100.03     LegendNANA
17:00 8.8 8.2 96 LegendMM 9 8   99.93     LegendNANA
18:00 8.8 8.3 97 LegendMM 7 3   99.91     LegendNANA
19:00 8.5 8.0 97 LegendMM 0 1   99.86     LegendNANA
20:00 8.6 8.2 97 LegendMM 31 5   99.84     LegendNANA
21:00 8.6 8.2 97 LegendMM 33 10   99.86     LegendNANA
22:00 8.3 7.8 97 LegendMM 32 13   99.90     LegendNANA
23:00 8.2 7.7 97 LegendMM 29 6   99.92     LegendNANA

Notes on Data Quality.

Legend

  • E = Estimated
  • M = Missing
  • NA = Not Available*
  • [empty] = Indicates an unobserved value
Date modified: